[[{"header":{"parameterUnit":"m.s-1","parameterCategory":1,"la1":30.2991,"la2":30.254,"lo1":-89.0895,"lo2":-89.0444,"dy":0.0017,"dx":0.0017,"nx":28,"ny":28,"refTime":"2025-04-20T03:00:00:Z","depth":0,"parameterNumber":2,"parameterNumberName":"U-component_of_WINDS"},"data":[0,0,0,0,0,0,0,0,0,0,0,0,0,0,0,0,0,0,0,0,0,0,0,0,0,0,0,0,0,0,0,0,0,0,0,0,0,0,0,0,0,0,0,0,0,0,0,0,0,0,0,0,0,0,0,0,0,0,-5.3234,-5.3234,0,-5.3232,-5.3232,-5.3232,-5.3131,-5.3129,-5.3126,-5.3123,-5.3121,-5.3124,-5.3126,0,0,0,0,0,0,0,0,0,0,0,0,0,-5.3153,-5.3155,-5.3234,-5.3234,-5.3234,-5.3232,-5.3232,-5.3232,-5.3132,-5.3128,-5.3125,-5.3122,-5.312,-5.3123,-5.3126,0,0,0,0,0,0,0,0,0,0,0,0,0,-5.3174,-5.3156,-5.3234,-5.3184,-5.3179,-5.3232,-5.3232,-5.3232,-5.3132,-5.3128,-5.3124,-5.3121,-5.312,-5.3123,-5.3127,-5.3227,0,0,-5.3137,-5.3139,0,0,0,0,0,0,0,0,-5.3172,-5.3177,-5.3191,-5.3187,-5.3182,-5.3178,-5.3202,-5.323,-5.3133,-5.315,-5.3123,-5.3119,-5.3143,-5.3145,-5.3153,-5.3227,-5.3227,-5.3138,-5.314,-5.3141,-5.3142,0,0,0,0,0,0,0,-5.3171,-5.3176,-5.3233,-5.3191,-5.3186,-5.3162,-5.316,-5.3207,-5.3169,-5.3148,-5.3141,-5.3142,-5.314,-5.315,-5.3152,-5.3227,-5.3138,-5.3141,-5.3143,-5.3144,-5.3386,-5.339,0,0,0,0,0,0,-5.3177,-5.3176,-5.3233,-5.3233,-5.3168,-5.3167,-5.3165,-5.3183,-5.3168,-5.3162,-5.3146,-5.3137,-5.3145,-5.3148,-5.3152,-5.3268,-5.3141,-5.3145,-5.3147,-5.3381,-5.3386,-5.3391,0,0,0,0,0,0,-5.3175,-5.3183,-5.3233,-5.3202,-5.3207,-5.3172,-5.3193,-5.3185,-5.3194,-5.3166,-5.3158,-5.3162,-5.3142,-5.3147,-5.3209,-5.3267,-5.3146,-5.315,-5.3376,-5.3383,-5.3389,-5.3503,0,0,0,0,0,0,-5.3173,-5.3183,-5.322,-5.3204,-5.3209,-5.3291,-5.3197,-5.3188,-5.3201,-5.319,-5.3179,-5.3174,-5.314,-5.3205,-5.3213,-5.327,-5.3152,-5.3371,-5.3379,-5.3387,-5.3494,-5.3513,-5.3529,0,0,0,0,0,-5.3171,-5.3251,-5.3222,-5.3229,-5.3254,-5.3294,-5.3297,-5.3256,-5.3206,-5.3243,-5.3226,-5.3174,-5.326,-5.3212,-5.3221,-5.3279,-5.3367,-5.3377,-5.3386,-5.3486,-5.3509,-5.3528,0,0,0,0,0,0,-5.3274,-5.3248,-5.3215,-5.3293,-5.3297,-5.3277,-5.3322,-5.3281,-5.3298,-5.3288,-5.3237,-5.3235,-5.3306,-5.3299,-5.3246,-5.3377,-5.3305,-5.3317,-5.3378,-5.3399,-5.3416,-5.3415,-5.3155,0,0,0,0,0,-5.3306,-5.334,-5.3316,-5.3387,-5.3391,-5.3357,-5.3373,-5.3341,-5.3343,-5.3343,-5.333,-5.3333,-5.3361,-5.338,-5.3404,-5.3494,-5.349,-5.3539,-5.3556,-5.3571,-5.358,-5.3628,-5.365,-5.3423,-5.3423,-5.3422,0,0,-5.3372,-5.3362,-5.3386,-5.3408,-5.3407,-5.3444,-5.3358,-5.3401,-5.3428,-5.335,-5.3408,-5.3399,-5.34,-5.3477,-5.351,-5.3473,-5.3643,-5.3583,-5.3594,-5.3596,-5.364,-5.3662,-5.3681,-5.3429,-5.3428,-5.3427,0,0,-5.351,-5.3507,-5.3566,-5.3567,-5.3567,-5.3545,-5.356,-5.3547,-5.3538,-5.3597,-5.3539,-5.3572,-5.3621,-5.3624,-5.3632,-5.3777,-5.373,-5.3787,-5.3876,-5.3923,-5.3941,-5.3956,-5.4007,-5.4027,-5.3797,-5.3797,-5.3798,0,-5.3591,-5.3644,-5.3601,-5.3648,-5.366,-5.3593,-5.3653,-5.3657,-5.3665,-5.3675,-5.3634,-5.3695,-5.3691,-5.3768,-5.3804,-5.3813,-5.3829,-5.3786,-5.3942,-5.3957,-5.3971,-5.4019,-5.4038,-5.3804,-5.3803,-5.3803,-5.3802,0,-5.3744,-5.3783,-5.3831,-5.3841,-5.3859,-5.3912,-5.3878,-5.3901,-5.387,-5.3853,-5.3914,-5.3908,-5.393,-5.3947,-5.3916,-5.4021,-5.3998,-5.3951,-5.3876,-5.4,-5.4044,-5.4062,-5.3814,-5.3811,-5.3809,-5.3808,0,0,-5.3943,-5.3932,-5.395,-5.3955,-5.3952,-5.3981,-5.4033,-5.4056,-5.4076,-5.4086,-5.4128,-5.4173,-5.413,-5.414,-5.4109,-5.4151,-5.4267,-5.4099,-5.4098,-5.4129,-5.4382,-5.4416,-5.4438,-5.4238,-5.4241,-5.4244,-5.4382,0,-5.4076,-5.4162,-5.4127,-5.4217,-5.4253,-5.4192,-5.4237,-5.4241,-5.4228,-5.4256,-5.4241,-5.4274,-5.4215,-5.422,-5.426,-5.4244,-5.4316,-5.4234,-5.4276,-5.4278,-5.4275,-5.4461,-5.4497,-5.4627,-5.4399,-5.4402,-5.4404,0,-5.4241,-5.4259,-5.4352,-5.4346,-5.4359,-5.44,-5.4419,-5.4448,-5.4452,-5.4439,-5.4453,-5.4414,-5.4465,-5.4395,-5.4465,-5.441,-5.4426,-5.4422,-5.4426,-5.4426,-5.4346,-5.4465,-5.4667,-5.4686,-5.4431,-5.4429,-5.4427,0,-5.4376,-5.4423,-5.4485,-5.4491,-5.4486,-5.4516,-5.4515,-5.4516,-5.4533,-5.455,-5.456,-5.4584,-5.4596,-5.4616,-5.4585,-5.4536,-5.466,-5.4586,-5.465,-5.4651,-5.4676,-5.4675,-5.4882,-5.4691,-5.469,-5.469,-5.469,0,-5.4526,-5.4586,-5.4546,-5.4584,-5.4649,-5.461,-5.4677,-5.4669,-5.4671,-5.4707,-5.4658,-5.4693,-5.4651,-5.4683,-5.466,-5.4722,-5.4728,-5.472,-5.4712,-5.4723,-5.4724,-5.473,-5.4719,-5.4695,-5.4694,-5.4693,-5.4692,0,-5.4685,-5.4661,-5.4725,-5.4716,-5.4715,-5.4764,-5.4756,-5.4792,-5.4776,-5.4823,-5.4832,-5.4808,-5.4843,-5.4816,-5.485,-5.4834,-5.4916,-5.4897,-5.4914,-5.4908,-5.4973,-5.4967,-5.519,-5.5218,-5.5011,-5.5013,-5.5014,0,-5.4782,-5.4826,-5.4823,-5.4844,-5.4847,-5.4881,-5.4899,-5.4864,-5.4884,-5.4894,-5.4929,-5.496,-5.4983,-5.5042,-5.5028,-5.5055,-5.5035,-5.5111,-5.5038,-5.5048,-5.5034,-5.5031,-5.5035,-5.5125,-5.5127,-5.5129,-5.5131,0,-5.4956,-5.4942,-5.4969,-5.4994,-5.5016,-5.5033,-5.5046,-5.5066,-5.5031,-5.5057,-5.5092,-5.511,-5.5147,-5.5179,-5.5201,-5.52,-5.516,-5.5155,-5.5171,-5.5181,-5.5189,-5.5184,-5.4953,-5.5149,-5.5147,-5.5146,-5.5145,-5.5144,-5.5085,-5.5123,-5.5127,-5.5159,-5.5166,-5.518,-5.5214,-5.5204,-5.5233,-5.526,-5.5238,-5.5282,-5.5288,-5.5313,-5.5319,-5.5352,-5.532,-5.5344,-5.5349,-5.5355,-5.5364,-5.5186,-5.5356,-5.5356,-5.5355,-5.5355,-5.5355,0,-5.5255,-5.5256,-5.5287,-5.5307,-5.5334,-5.5296,-5.531,-5.5334,-5.5373,-5.5382,-5.5406,-5.5449,-5.548,-5.547,-5.5498,-5.5528,-5.551,-5.5536,-5.5532,-5.5533,-5.5391,-5.5374,-5.555,-5.555,-5.555,-5.555,-5.555,-5.555,-5.5347,-5.5408,-5.5396,-5.5462,-5.5462,-5.5504,-5.5515,-5.5529,-5.5536,-5.5586,-5.5612,-5.5606,-5.5608,-5.5637,-5.5664,-5.5661,-5.5673,-5.5705,-5.5695,-5.5562,-5.5543,-5.5524,-5.5508,-5.5709,-5.5709,-5.5834,-5.5835,-5.5836]},{"header":{"parameterUnit":"m.s-1","parameterCategory":1,"la1":30.2991,"la2":30.254,"lo1":-89.0895,"lo2":-89.0444,"dy":0.0017,"dx":0.0017,"nx":28,"ny":28,"refTime":"2025-04-20T03:00:00:Z","depth":0,"parameterNumber":3,"parameterNumberName":"V-component_of_WINDS"},"data":[0,0,0,0,0,0,0,0,0,0,0,0,0,0,0,0,0,0,0,0,0,0,0,0,0,0,0,0,0,0,0,0,0,0,0,0,0,0,0,0,0,0,0,0,0,0,0,0,0,0,0,0,0,0,0,0,0,0,1.843,1.843,0,1.842,1.842,1.842,1.8432,1.8432,1.8433,1.8433,1.842,1.842,1.8419,0,0,0,0,0,0,0,0,0,0,0,0,0,1.8457,1.8457,1.843,1.843,1.843,1.842,1.842,1.842,1.8432,1.8432,1.8433,1.8434,1.8421,1.842,1.8419,0,0,0,0,0,0,0,0,0,0,0,0,0,1.8446,1.8456,1.843,1.8434,1.8435,1.842,1.842,1.842,1.8432,1.8433,1.8433,1.8434,1.8421,1.842,1.8419,1.8398,0,0,1.8415,1.8415,0,0,0,0,0,0,0,0,1.8447,1.8445,1.8434,1.8434,1.8434,1.8428,1.8425,1.8413,1.8432,1.8433,1.8433,1.8434,1.8422,1.8421,1.8418,1.8398,1.8397,1.8415,1.8414,1.8414,1.8414,0,0,0,0,0,0,0,1.8447,1.8446,1.8426,1.8434,1.8434,1.8437,1.8436,1.8423,1.8424,1.8433,1.8434,1.8433,1.8422,1.8419,1.8417,1.8397,1.8415,1.8414,1.8413,1.8413,1.8363,1.8362,0,0,0,0,0,0,1.8448,1.8446,1.8426,1.8426,1.8443,1.8436,1.8435,1.8429,1.8424,1.8424,1.8432,1.8433,1.842,1.8419,1.8417,1.8394,1.8414,1.8413,1.8412,1.8363,1.8362,1.8362,0,0,0,0,0,0,1.8449,1.8446,1.8427,1.8436,1.8434,1.8435,1.8428,1.8429,1.8425,1.8423,1.8423,1.8428,1.8421,1.8419,1.8404,1.8394,1.8412,1.8411,1.8364,1.8363,1.8362,1.8348,0,0,0,0,0,0,1.8449,1.8446,1.8438,1.8436,1.8433,1.8414,1.8428,1.8428,1.8424,1.8425,1.842,1.842,1.8421,1.8405,1.8403,1.8393,1.841,1.8365,1.8363,1.8362,1.8349,1.8347,1.8344,0,0,0,0,0,1.845,1.8434,1.8438,1.8436,1.8424,1.8413,1.8412,1.8415,1.8423,1.8415,1.8415,1.842,1.8396,1.8404,1.8401,1.839,1.8365,1.8364,1.8362,1.835,1.8347,1.8344,0,0,0,0,0,0,1.8433,1.8433,1.8438,1.842,1.8417,1.8415,1.8405,1.8411,1.8404,1.8405,1.8409,1.8408,1.8392,1.839,1.8399,1.8372,1.8382,1.838,1.8374,1.8371,1.8368,1.8369,1.841,0,0,0,0,0,1.8428,1.842,1.842,1.8404,1.8402,1.8404,1.84,1.8403,1.8399,1.8397,1.8395,1.839,1.8382,1.8376,1.8368,1.8349,1.8349,1.8341,1.8339,1.8337,1.8334,1.8326,1.8323,1.8357,1.8357,1.8357,0,0,1.8415,1.8415,1.8409,1.8401,1.8399,1.839,1.8403,1.8392,1.8386,1.8395,1.8382,1.838,1.8375,1.8359,1.8351,1.8356,1.8325,1.8335,1.8333,1.8332,1.8324,1.8321,1.8318,1.8356,1.8356,1.8356,0,0,1.8389,1.8388,1.8375,1.8374,1.8371,1.8373,1.837,1.8368,1.8368,1.8355,1.8362,1.8354,1.8339,1.8336,1.8333,1.8309,1.8314,1.8306,1.8293,1.8285,1.8282,1.828,1.8272,1.8269,1.8304,1.8304,1.8304,0,1.8374,1.8362,1.8368,1.8358,1.8355,1.8365,1.8353,1.835,1.8344,1.8342,1.8348,1.8331,1.8328,1.8312,1.8307,1.8303,1.8301,1.8306,1.8282,1.828,1.8278,1.8271,1.8268,1.8303,1.8303,1.8303,1.8303,0,1.8345,1.8337,1.8327,1.8323,1.8319,1.8308,1.8312,1.8307,1.8312,1.8313,1.83,1.8298,1.8291,1.8287,1.829,1.8272,1.8275,1.8282,1.8292,1.8274,1.8267,1.8264,1.8302,1.8302,1.8302,1.8303,0,0,1.8306,1.8308,1.8304,1.8303,1.8302,1.8296,1.8286,1.8281,1.8277,1.8273,1.8265,1.8254,1.8261,1.8257,1.826,1.8252,1.8236,1.826,1.826,1.8256,1.8217,1.8213,1.8209,1.8239,1.8239,1.8238,1.8218,0,1.8281,1.8265,1.8271,1.8254,1.8248,1.8258,1.825,1.8248,1.825,1.8244,1.8245,1.8238,1.8247,1.8245,1.8238,1.8239,1.8228,1.824,1.8232,1.8232,1.8233,1.8206,1.82,1.8181,1.8215,1.8215,1.8214,0,1.8248,1.8246,1.8229,1.8232,1.8229,1.8221,1.8218,1.8212,1.8211,1.8213,1.821,1.8216,1.8207,1.8218,1.8205,1.8214,1.8211,1.8211,1.8211,1.821,1.8222,1.8205,1.8175,1.8172,1.821,1.8211,1.8211,0,1.8223,1.8215,1.8205,1.8204,1.8206,1.8201,1.8201,1.8201,1.8198,1.8195,1.8193,1.8189,1.8186,1.8183,1.8187,1.8194,1.8175,1.8185,1.8176,1.8176,1.8171,1.8171,1.8141,1.8169,1.8169,1.8169,1.8169,0,1.8194,1.8184,1.8194,1.8187,1.8176,1.8184,1.8173,1.8174,1.8175,1.8169,1.8177,1.8171,1.8177,1.8172,1.8176,1.8166,1.8164,1.8166,1.8167,1.8165,1.8165,1.8163,1.8165,1.8168,1.8168,1.8168,1.8168,0,1.8164,1.817,1.8159,1.8163,1.8164,1.8156,1.8159,1.8154,1.8157,1.815,1.8148,1.8153,1.8148,1.8152,1.8146,1.8149,1.8136,1.8139,1.8137,1.8138,1.8128,1.813,1.8096,1.8092,1.8122,1.8122,1.8121,0,1.8145,1.8138,1.8142,1.8139,1.814,1.8135,1.8133,1.8141,1.8138,1.8138,1.8133,1.8129,1.8126,1.8117,1.8119,1.8116,1.8119,1.8107,1.8118,1.8117,1.8119,1.812,1.812,1.8105,1.8104,1.8104,1.8104,0,1.8112,1.8116,1.8113,1.8112,1.811,1.8109,1.8108,1.8105,1.8114,1.811,1.8106,1.8104,1.81,1.8096,1.8094,1.8094,1.81,1.8101,1.8099,1.8097,1.8096,1.8097,1.8131,1.8101,1.8101,1.8102,1.8102,1.8102,1.8087,1.8082,1.8085,1.8082,1.8083,1.8083,1.8079,1.8082,1.8079,1.8077,1.8082,1.8077,1.8078,1.8076,1.8076,1.8072,1.8077,1.8073,1.8072,1.8071,1.8071,1.8097,1.8071,1.8071,1.8072,1.8072,1.8072,0,1.8055,1.8058,1.8055,1.8056,1.8054,1.8062,1.8063,1.806,1.8056,1.8057,1.8055,1.8051,1.8048,1.8052,1.8049,1.8046,1.8049,1.8045,1.8045,1.8045,1.8066,1.8068,1.8043,1.8043,1.8043,1.8043,1.8043,1.8043,1.8038,1.803,1.8035,1.8028,1.8031,1.8028,1.8027,1.8028,1.8029,1.8025,1.8023,1.8026,1.8028,1.8027,1.8025,1.8026,1.8025,1.802,1.8022,1.8041,1.8044,1.8046,1.8049,1.8019,1.8019,1.8002,1.8002,1.8002]}]]